Temp
56 56 57 57 57 56 56 56 57 57 57 58 58 58 59 58 58 52 48 50 51 46 49 58 64 57 59 57 52 56 57 59 57 53 52 52 52 55 53 54 53 54 51 50 47 44 47 65 64 58 57 58 61 61
56 56 56 56 56 56 55 55 56 56 57 57 58 58 58 58 58 55 46 54 55 49 52 58 65 68 66 66 59 56 56 55 57 53 51 51 53 51 49 50 55 52 54 50 50 49 54 58 58 59 61 57 58 60
56 56 56 56 56 55 55 56 56 56 57 57 58 58 58 57 57 56 47 47 50 48 52 54 61 65 62 65 66 57 57 59 58 58 53 51 51 52 49 50 52 53 54 51 51 55 56 60 61 62 63 62 62 62
55 56 56 55 55 55 55 56 56 56 56 57 57 58 58 57 57 56 47 48 49 49 45 55 66 62 68 66 66 66 65 61 59 57 54 51 52 55 51 53 53 54 52 49 49 53 57 60 60 63 62 63 62 62
55 55 56 56 55 55 56 56 56 56 56 57 57 57 57 57 56 53 49 50 52 51 46 48 58 65 65 67 68 65 62 58 56 56 52 53 52 54 50 51 50 54 52 49 48 56 54 56 60 63 62 61 61 60
54 54 55 55 55 55 55 55 55 56 56 56 57 57 57 56 55 51 52 53 53 52 47 45 55 61 65 65 63 61 60 56 55 55 54 54 55 55 47 45 54 54 55 57 55 61 59 61 63 63 61 61 61 60
54 55 55 56 56 55 55 55 55 55 56 56 56 56 56 55 49 53 53 55 52 53 49 46 49 60 62 57 56 55 55 54 54 52 52 53 54 52 47 46 55 56 57 58 62 63 59 60 59 62 63 63 61 61
54 55 55 55 55 55 55 55 55 55 56 56 56 56 55 55 53 54 56 54 52 51 51 45 49 54 59 50 50 51 50 50 51 49 51 50 52 49 47 51 54 57 61 62 62 62 60 59 60 60 62 60 58 57
54 54 54 54 54 55 55 55 55 55 55 55 56 56 53 53 53 54 61 57 52 53 47 46 45 44 55 49 47 49 48 46 48 47 48 49 47 44 50 50 55 57 57 57 59 61 60 59 58 59 59 59 57 56
54 54 54 54 54 54 54 54 54 54 54 55 54 55 52 53 59 59 54 52 52 51 49 47 47 47 51 46 45 45 45 43 41 45 49 44 44 52 53 54 56 58 61 62 60 57 57 58 58 58 58 59 59 58
54 54 54 54 54 54 54 54 54 54 54 47 43 45 49 55 54 52 49 49 49 47 47 47 48 46 51 46 43 44 42 43 41 47 45 45 45 52 54 55 56 58 60 63 63 63 63 62 60 60 60 62 61 60
54 54 53 54 54 54 54 54 54 49 47 47 48 51 47 50 51 49 49 53 48 47 49 48 49 49 49 48 44 44 41 44 43 51 47 43 48 53 54 54 56 57 59 62 63 63 65 64 63 61 60 60 61 62
54 53 53 54 54 54 54 54 55 54 52 49 47 47 49 50 43 46 45 45 45 49 50 49 47 48 48 48 44 43 40 40 47 42 45 46 51 53 53 54 57 59 60 61 63 63 62 63 63 61 61 63 60 59
53 53 53 53 54 54 55 55 54 52 47 47 49 38 47 46 50 51 53 49 51 51 49 47 47 46 46 45 44 40 45 44 41 42 43 47 50 52 53 54 56 56 58 59 59 61 61 63 61 61 61 60 59 58
53 53 53 53 55 55 54 54 54 48 47 46 49 42 48 56 54 56 54 57 56 51 50 47 46 46 44 44 43 44 44 42 42 42 45 47 50 52 52 54 55 56 56 56 59 60 58 59 58 58 59 58 58 59
53 53 53 56 55 54 54 52 50 49 49 47 48 49 56 55 53 53 55 53 51 50 49 48 44 44 43 43 43 43 44 42 43 44 48 49 49 51 51 53 54 56 56 56 56 58 58 56 56 56 58 58 58 58
53 49 55 55 54 53 53 49 50 50 49 50 49 54 55 55 52 56 54 52 52 51 51 46 45 45 45 43 43 44 42 47 47 46 48 50 49 51 53 53 54 55 55 56 56 55 55 56 55 54 54 55 55 55
51 51 55 54 53 51 49 50 50 51 49 51 52 55 56 56 52 51 53 54 56 54 50 46 47 42 41 42 41 44 44 47 47 49 52 53 52 52 53 53 54 54 55 55 54 54 54 53 53 52 52 53 53 54
53 53 54 53 53 49 45 51 51 46 49 49 52 53 52 55 57 58 55 52 51 50 49 46 46 42 42 44 45 45 46 46 46 49 51 52 51 52 52 52 53 52 53 53 53 53 53 54 53 52 53 52 57 58
53 54 54 54 53 46 46 47 51 47 47 50 52 52 53 51 51 51 52 52 49 48 47 45 44 45 45 46 47 48 51 50 48 47 48 49 50 52 52 51 50 50 51 51 51 49 52 52 56 57 57 58 58 57
51 53 54 51 48 46 46 45 46 47 48 48 51 50 53 54 51 50 50 51 46 44 46 45 46 47 49 50 51 49 49 49 49 49 48 48 50 50 51 51 51 50 51 52 51 50 50 55 56 57 57 57 55 55
49 54 50 52 48 48 45 48 47 49 47 49 49 53 51 50 47 51 49 49 47 46 46 46 46 47 49 51 51 51 52 52 51 49 47 48 49 49 49 50 51 51 51 51 51 53 53 54 54 55 56 56 54 57
51 51 48 51 48 41 44 49 47 51 46 48 50 51 51 51 50 52 50 45 46 48 48 48 50 50 50 51 51 50 50 50 48 47 48 48 49 53 52 50 51 51 50 51 52 54 54 50 57 57 57 57 58 53
53 46 45 47 44 40 49 49 52 50 51 50 49 49 48 48 52 50 47 46 46 46 48 51 49 47 48 47 46 47 48 48 48 48 50 51 52 52 53 52 53 54 53 52 56 56 58 57 52 57 57 58 56 54
40 41 40 34 43 44 46 48 50 49 48 50 46 48 49 47 49 47 41 44 45 46 49 50 47 46 45 45 47 50 50 53 51 49 50 51 52 53 54 55 54 58 59 58 58 57 57 58 56 56 57 55 54 53
37 42 39 44 46 46 48 47 48 49 49 49 49 49 48 48 46 44 43 45 46 49 49 48 51 51 47 49 49 50 52 54 53 52 50 51 51 51 49 49 50 53 56 55 55 57 58 56 56 58 60 55 49 54
38 41 46 47 49 50 49 51 51 49 48 48 49 50 49 46 47 44 47 50 51 53 53 51 56 52 51 51 51 52 54 55 54 52 53 52 51 51 51 51 51 53 53 56 56 55 56 58 58 58 57 56 58 57
45 47 42 46 49 51 49 49 49 48 49 49 49 45 47 48 46 49 51 54 55 56 52 55 55 53 54 53 53 54 54 55 54 54 54 55 56 54 52 53 53 49 51 52 56 62 61 59 59 59 58 58 56 55
43 46 47 47 49 49 49 49 49 49 49 50 47 45 50 50 55 53 54 54 54 54 54 53 51 54 54 54 54 55 54 54 51 51 54 50 51 54 55 54 54 54 53 54 49 52 56 56 56 57 56 55 54 54
44 47 48 49 49 48 52 50 51 54 52 55 55 54 52 54 54 56 56 56 55 51 55 58 58 53 54 54 55 56 57 56 56 52 51 52 54 54 53 53 55 55 53 54 55 55 52 54 52 54 55 55 53 52
51 51 51 51 50 54 54 52 55 56 55 55 55 51 51 50 53 56 58 59 60 58 54 53 57 59 57 54 54 56 56 60 57 56 55 55 54 53 54 55 54 54 55 56 56 54 54 54 53 54 55 55 54 53
52 51 51 49 51 55 53 54 53 52 53 51 51 50 48 48 47 50 53 54 54 53 53 55 57 58 61 60 57 56 51 56 55 56 56 56 56 56 58 58 55 55 56 56 56 56 55 54 54 54 55 56 57 56
52 52 53 51 51 53 54 53 51 49 51 49 49 51 50 51 51 52 55 56 56 56 56 60 62 60 58 60 57 55 51 54 49 46 45 45 45 48 51 52 54 56 56 55 55 55 56 55 55 56 55 55 56 56
MSLP
1024.99 1024.43 1023.88 1023.37 1022.82 1022.25 1021.71 1021.12 1020.39 1019.73 1019.07 1018.41 1017.74 1017.20 1016.67 1016.18 1015.76 1015.64 1015.06 1014.54 1014.54 1014.28 1012.51 1011.18 1010.12 1009.57 1009.19 1009.01 1009.16 1008.72 1008.08 1007.73 1007.75 1008.23 1008.82 1008.78 1008.49 1007.53 1007.38 1006.99 1007.11 1007.80 1008.65 1009.41 1009.99 1010.02 1009.23 1008.04 1008.34 1008.77 1009.35 1010.42 1011.15 1011.97
1024.72 1024.22 1023.71 1023.21 1022.68 1022.09 1021.48 1020.85 1020.20 1019.57 1018.93 1018.28 1017.62 1017.02 1016.55 1016.14 1015.73 1015.49 1015.45 1014.42 1014.34 1014.43 1012.45 1010.98 1009.73 1008.96 1008.83 1008.66 1008.71 1008.78 1009.28 1009.10 1008.94 1009.29 1009.62 1009.46 1009.06 1008.50 1008.27 1008.10 1007.66 1008.43 1008.73 1009.08 1010.05 1009.72 1009.13 1008.70 1008.50 1009.01 1009.51 1010.44 1011.61 1011.94
1024.52 1024.00 1023.52 1023.03 1022.51 1021.93 1021.31 1020.60 1019.97 1019.38 1018.68 1018.05 1017.42 1016.82 1016.31 1015.95 1015.67 1015.53 1015.51 1014.99 1014.42 1014.07 1012.31 1010.86 1009.12 1008.09 1008.12 1008.33 1008.14 1008.88 1008.85 1008.60 1008.79 1008.95 1009.59 1009.78 1009.65 1008.97 1009.02 1008.52 1008.39 1008.64 1008.73 1009.62 1010.16 1010.48 1010.15 1009.64 1009.57 1009.78 1010.24 1010.95 1011.61 1012.12
1024.33 1023.83 1023.34 1022.86 1022.31 1021.73 1021.10 1020.36 1019.68 1019.04 1018.39 1017.72 1017.05 1016.48 1015.98 1015.61 1015.40 1015.27 1015.43 1014.98 1014.91 1014.54 1013.54 1010.78 1008.96 1008.32 1007.59 1007.56 1007.92 1008.01 1008.15 1008.38 1008.79 1009.06 1009.70 1010.00 1009.99 1009.03 1009.08 1008.82 1008.82 1008.86 1009.09 1010.28 1010.87 1010.96 1010.86 1010.73 1010.44 1010.35 1010.94 1011.39 1012.07 1012.80
1024.11 1023.67 1023.16 1022.55 1022.01 1021.44 1020.76 1020.07 1019.35 1018.60 1017.91 1017.25 1016.58 1015.99 1015.54 1015.14 1014.92 1014.82 1014.94 1014.54 1014.41 1014.78 1014.20 1012.24 1010.10 1008.61 1008.19 1007.80 1008.00 1008.15 1008.38 1008.78 1009.26 1009.79 1010.22 1010.15 1009.42 1009.41 1009.41 1009.30 1009.26 1009.10 1009.23 1009.59 1010.12 1009.60 1009.84 1010.59 1010.65 1010.56 1011.11 1011.89 1012.35 1012.89
1023.83 1023.36 1022.82 1022.30 1021.75 1021.09 1020.42 1019.70 1018.95 1018.19 1017.38 1016.66 1015.95 1015.41 1014.99 1014.71 1014.51 1014.51 1014.52 1014.33 1013.95 1014.05 1014.26 1013.18 1011.24 1009.98 1009.10 1008.73 1008.74 1008.96 1009.10 1009.24 1009.65 1009.92 1010.04 1009.69 1009.05 1009.28 1010.10 1010.20 1008.96 1008.68 1008.49 1008.42 1008.25 1009.22 1009.47 1009.88 1010.47 1010.64 1011.25 1011.92 1012.44 1012.97
1023.55 1023.05 1022.58 1022.01 1021.35 1020.73 1020.04 1019.33 1018.55 1017.70 1016.83 1015.97 1015.21 1014.61 1014.29 1014.20 1014.46 1014.35 1014.19 1013.95 1013.76 1013.82 1014.18 1013.71 1012.18 1010.70 1010.20 1010.07 1010.35 1010.36 1010.18 1010.28 1010.38 1010.51 1010.41 1010.06 1009.64 1009.55 1010.23 1010.22 1008.83 1008.53 1008.17 1008.15 1008.15 1008.80 1010.16 1010.28 1010.68 1010.85 1011.24 1012.01 1012.65 1013.28
1023.23 1022.76 1022.23 1021.66 1021.07 1020.42 1019.71 1018.97 1018.15 1017.23 1016.19 1015.19 1014.33 1013.66 1013.41 1013.64 1013.97 1013.64 1013.21 1013.07 1013.44 1014.07 1014.20 1014.07 1013.09 1011.85 1011.30 1012.03 1012.18 1011.96 1011.77 1011.46 1011.42 1011.41 1010.91 1011.01 1010.44 1010.29 1010.44 1009.48 1009.04 1008.83 1008.50 1008.58 1008.78 1008.97 1009.47 1010.23 1010.87 1011.36 1011.73 1012.39 1013.14 1013.69
1022.89 1022.40 1021.91 1021.36 1020.73 1020.08 1019.40 1018.68 1017.88 1016.83 1015.59 1014.59 1013.62 1013.26 1013.45 1013.69 1013.94 1013.72 1013.38 1013.32 1013.37 1014.04 1014.24 1014.31 1013.99 1013.39 1012.65 1013.30 1013.47 1012.99 1012.93 1012.97 1012.69 1012.40 1012.00 1011.79 1011.36 1011.46 1011.12 1010.35 1009.79 1009.34 1009.20 1009.39 1009.57 1009.68 1010.26 1010.87 1011.45 1011.82 1012.20 1012.80 1013.14 1013.68
1022.53 1022.04 1021.56 1021.04 1020.42 1019.75 1019.12 1018.46 1017.74 1016.66 1015.26 1014.21 1013.53 1013.83 1014.19 1013.99 1013.70 1013.27 1013.41 1013.50 1013.52 1013.80 1014.07 1014.31 1014.14 1013.88 1013.74 1014.12 1014.28 1014.44 1014.27 1014.46 1014.06 1013.58 1012.85 1012.53 1012.36 1011.99 1011.28 1010.82 1010.66 1010.03 1009.43 1009.75 1009.90 1010.57 1010.83 1011.29 1011.61 1012.03 1012.29 1012.56 1012.80 1013.23
1022.14 1021.66 1021.19 1020.69 1020.13 1019.50 1018.89 1018.35 1017.76 1016.83 1015.58 1015.74 1016.16 1015.88 1014.89 1013.90 1013.53 1013.54 1013.59 1013.68 1013.77 1014.01 1014.14 1014.20 1014.23 1014.27 1014.10 1014.57 1015.08 1015.32 1015.22 1014.99 1014.65 1014.12 1013.76 1013.24 1012.76 1012.56 1012.10 1011.26 1011.24 1010.91 1010.41 1010.27 1009.97 1010.12 1010.43 1010.80 1011.31 1011.75 1012.12 1012.32 1012.58 1012.92
1021.83 1021.37 1020.90 1020.37 1019.84 1019.29 1018.74 1018.14 1017.75 1017.64 1017.54 1017.47 1017.52 1016.93 1016.00 1014.61 1013.90 1013.70 1013.49 1013.48 1013.64 1013.97 1014.01 1014.06 1014.16 1014.21 1014.29 1014.39 1015.01 1015.41 1015.36 1015.18 1014.81 1014.23 1013.99 1013.65 1013.17 1012.53 1012.37 1011.86 1011.51 1011.56 1011.22 1010.53 1010.84 1010.50 1010.54 1010.74 1010.96 1011.40 1011.78 1012.06 1012.28 1012.83
1021.48 1021.01 1020.46 1019.96 1019.45 1018.97 1018.46 1017.92 1017.58 1017.42 1017.08 1017.28 1017.13 1016.58 1015.82 1014.65 1014.01 1013.45 1013.30 1013.46 1013.69 1013.71 1013.74 1013.89 1014.27 1014.33 1014.38 1014.52 1015.09 1015.26 1015.21 1015.07 1014.47 1014.35 1013.93 1013.59 1013.33 1012.98 1012.61 1012.61 1012.47 1012.18 1011.66 1011.32 1011.21 1010.93 1010.75 1010.70 1011.00 1011.43 1011.64 1011.81 1012.06 1012.53
1021.07 1020.47 1019.98 1019.46 1019.02 1018.58 1018.11 1017.63 1017.28 1017.09 1017.19 1017.14 1016.54 1016.11 1015.19 1014.05 1013.27 1012.76 1012.71 1012.86 1013.13 1013.34 1013.70 1014.03 1014.32 1014.44 1014.49 1014.72 1014.92 1015.07 1014.56 1014.46 1014.41 1014.12 1013.69 1013.55 1013.40 1012.98 1012.80 1012.99 1012.58 1012.29 1012.11 1011.99 1011.08 1010.82 1011.17 1010.98 1011.02 1011.32 1011.47 1011.59 1011.96 1012.26
1020.59 1019.90 1019.37 1018.72 1018.41 1018.18 1017.70 1017.12 1016.78 1017.00 1017.13 1016.87 1016.10 1015.18 1014.08 1013.06 1012.66 1012.36 1012.44 1012.55 1012.77 1013.22 1013.69 1014.14 1014.36 1014.49 1014.65 1014.73 1014.75 1014.68 1014.43 1014.30 1014.26 1014.15 1013.83 1013.54 1013.18 1012.97 1012.75 1012.69 1012.58 1012.27 1012.27 1012.21 1011.96 1012.04 1011.88 1011.41 1011.42 1011.42 1011.52 1011.88 1011.88 1011.94
1020.29 1019.40 1018.76 1018.51 1018.20 1017.65 1017.06 1016.60 1016.67 1016.69 1016.71 1016.37 1015.50 1014.42 1013.21 1012.78 1012.66 1012.60 1012.60 1012.79 1012.95 1013.33 1013.70 1014.07 1014.54 1014.78 1014.71 1014.71 1014.80 1014.68 1014.59 1014.69 1014.36 1014.07 1013.67 1013.58 1013.17 1012.79 1012.78 1012.62 1012.45 1012.35 1012.31 1012.02 1011.96 1011.88 1011.79 1011.72 1011.74 1011.69 1011.62 1011.77 1011.83 1011.89
1020.04 1019.57 1018.69 1018.41 1018.00 1017.23 1016.40 1016.61 1016.42 1016.41 1016.12 1015.43 1014.50 1013.47 1013.17 1012.80 1012.64 1012.52 1012.64 1012.81 1012.82 1013.44 1013.93 1014.25 1014.63 1014.40 1014.62 1014.79 1014.81 1014.78 1014.67 1014.21 1013.84 1013.83 1013.73 1013.50 1013.38 1013.00 1012.71 1012.60 1012.53 1012.26 1012.09 1012.09 1011.98 1011.94 1011.88 1011.81 1011.75 1011.79 1011.85 1011.70 1011.62 1011.69
1020.06 1019.10 1018.71 1018.42 1018.23 1017.52 1016.75 1016.34 1016.28 1015.94 1015.52 1014.75 1014.21 1013.34 1012.88 1012.53 1012.45 1012.55 1012.43 1012.46 1012.82 1013.24 1013.99 1014.16 1014.28 1014.52 1014.79 1014.86 1014.91 1014.49 1014.31 1013.93 1013.84 1013.78 1013.38 1013.00 1012.86 1012.59 1012.39 1012.35 1012.41 1012.20 1012.08 1012.02 1011.98 1012.08 1012.08 1011.97 1012.03 1012.01 1011.93 1011.83 1011.81 1011.71
1019.70 1019.05 1018.41 1018.08 1018.51 1018.51 1017.88 1016.48 1016.10 1015.80 1015.07 1014.55 1013.86 1013.26 1012.90 1012.56 1012.32 1012.32 1012.37 1012.36 1012.48 1012.72 1013.45 1014.05 1014.51 1014.90 1014.79 1014.63 1014.43 1014.25 1014.13 1014.15 1014.00 1013.72 1013.53 1013.12 1012.87 1012.57 1012.39 1012.24 1012.25 1012.21 1012.08 1012.09 1012.15 1012.13 1012.15 1012.00 1012.11 1012.10 1011.96 1011.92 1011.73 1011.65
1018.91 1018.20 1017.72 1017.64 1017.93 1018.31 1017.95 1016.85 1015.85 1015.65 1015.10 1014.47 1013.87 1013.46 1013.14 1012.89 1012.51 1012.45 1012.53 1012.68 1012.96 1013.50 1014.10 1014.40 1014.61 1014.42 1014.38 1014.11 1013.99 1013.97 1013.97 1014.01 1014.14 1014.03 1013.68 1013.34 1013.01 1012.74 1012.49 1012.39 1012.27 1012.15 1012.14 1012.18 1012.19 1012.12 1012.17 1012.22 1012.10 1012.07 1011.82 1011.74 1011.85 1011.95
1018.80 1017.96 1017.62 1017.66 1018.00 1018.04 1017.87 1016.94 1016.21 1015.54 1014.99 1014.53 1013.84 1013.61 1013.12 1012.75 1012.74 1012.81 1012.82 1012.89 1013.53 1014.16 1014.34 1014.47 1014.43 1014.10 1013.84 1013.71 1013.62 1013.65 1013.73 1013.82 1013.87 1013.77 1013.58 1013.38 1012.92 1012.79 1012.48 1012.32 1012.28 1012.16 1012.23 1012.36 1012.42 1012.36 1012.28 1012.21 1012.07 1011.85 1011.71 1011.76 1011.93 1011.84
1019.15 1018.25 1018.00 1017.67 1017.83 1017.68 1017.50 1016.44 1016.18 1015.35 1015.09 1014.37 1013.96 1013.48 1013.32 1013.12 1013.13 1012.76 1012.83 1013.39 1013.92 1014.37 1014.40 1014.31 1014.16 1014.01 1013.83 1013.65 1013.57 1013.56 1013.47 1013.50 1013.48 1013.41 1013.23 1013.13 1012.97 1012.78 1012.51 1012.29 1012.12 1012.23 1012.33 1012.29 1012.28 1012.24 1012.30 1012.14 1012.03 1011.86 1011.68 1011.51 1011.62 1011.74
1019.00 1018.61 1018.44 1017.99 1017.74 1017.62 1016.75 1016.01 1015.75 1015.03 1014.81 1014.17 1013.76 1013.46 1013.24 1013.07 1012.77 1012.62 1013.22 1013.93 1014.21 1014.07 1014.04 1014.17 1013.87 1013.81 1013.81 1013.72 1013.70 1013.68 1013.59 1013.68 1013.75 1013.68 1013.53 1013.36 1013.11 1012.82 1012.56 1012.37 1012.24 1012.27 1012.27 1012.17 1012.09 1012.14 1012.22 1011.97 1011.92 1012.06 1011.63 1011.37 1011.48 1011.72
1018.72 1018.84 1018.60 1018.05 1017.77 1017.28 1016.32 1015.55 1014.92 1014.59 1014.10 1013.85 1013.65 1013.40 1013.20 1013.05 1012.74 1013.00 1013.80 1014.28 1014.29 1014.32 1014.20 1013.92 1013.87 1013.92 1013.90 1013.94 1014.07 1013.92 1013.92 1013.92 1013.79 1013.71 1013.60 1013.41 1013.18 1012.78 1012.52 1012.37 1012.08 1012.00 1011.98 1012.00 1011.87 1011.84 1011.56 1011.85 1011.83 1011.74 1011.58 1011.46 1011.68 1012.09
1019.57 1019.02 1018.87 1018.21 1017.53 1017.00 1016.00 1015.10 1014.44 1014.18 1013.85 1013.62 1013.50 1013.22 1013.08 1013.01 1013.17 1013.57 1014.16 1014.41 1014.43 1014.29 1014.19 1014.11 1014.14 1014.23 1014.26 1014.11 1014.06 1013.89 1013.77 1013.61 1013.60 1013.75 1013.61 1013.44 1013.26 1012.86 1012.49 1012.19 1012.09 1011.87 1011.53 1011.94 1012.13 1012.21 1012.23 1012.21 1011.77 1011.64 1011.59 1011.67 1011.97 1012.17
1019.37 1018.52 1018.37 1017.48 1016.67 1016.19 1015.27 1014.67 1014.20 1013.96 1013.78 1013.53 1013.26 1013.08 1012.96 1013.14 1013.42 1013.82 1014.20 1014.21 1014.25 1014.12 1014.12 1014.16 1014.00 1013.90 1013.97 1013.94 1013.91 1013.88 1013.64 1013.41 1013.44 1013.49 1013.42 1013.30 1013.17 1013.07 1012.94 1012.80 1012.52 1012.03 1011.56 1011.69 1011.86 1011.85 1011.71 1011.81 1011.75 1011.63 1011.54 1011.73 1011.90 1012.15
1018.73 1017.84 1017.16 1016.47 1016.00 1015.42 1014.82 1014.27 1013.91 1013.85 1013.68 1013.40 1013.24 1013.14 1013.14 1013.17 1013.40 1014.17 1014.04 1013.83 1013.77 1013.56 1013.55 1013.59 1013.58 1013.58 1013.73 1013.74 1013.71 1013.61 1013.52 1013.45 1013.33 1013.25 1012.87 1012.67 1012.64 1012.59 1012.63 1012.55 1012.40 1012.09 1011.80 1011.59 1011.44 1011.48 1011.42 1011.23 1011.28 1011.35 1011.68 1011.77 1011.73 1011.82
1017.91 1017.14 1016.68 1016.06 1015.47 1014.81 1014.51 1014.15 1013.92 1013.77 1013.50 1013.31 1013.29 1013.29 1013.28 1013.27 1013.49 1013.54 1013.20 1012.90 1013.04 1013.23 1013.48 1013.66 1013.72 1013.77 1013.82 1013.63 1013.74 1013.61 1013.42 1013.42 1013.22 1012.76 1012.15 1011.85 1011.73 1011.83 1011.99 1012.06 1011.95 1011.70 1011.69 1011.63 1011.49 1011.33 1011.30 1011.19 1011.20 1011.35 1011.50 1011.66 1011.77 1011.83
1017.36 1016.53 1016.08 1015.43 1014.91 1014.33 1013.95 1013.75 1013.54 1013.30 1013.12 1013.08 1013.24 1013.31 1013.21 1013.02 1012.51 1012.51 1012.50 1012.54 1012.72 1013.10 1013.62 1013.86 1014.22 1013.97 1014.16 1013.99 1013.74 1013.79 1013.75 1013.77 1013.83 1013.60 1013.25 1013.18 1012.83 1012.21 1011.96 1011.90 1011.80 1011.83 1011.90 1011.84 1011.64 1011.45 1011.31 1011.41 1011.47 1011.55 1011.60 1011.71 1011.71 1011.58
1016.27 1015.58 1015.37 1014.66 1014.16 1013.59 1013.04 1012.78 1012.66 1012.35 1012.47 1012.35 1012.45 1012.65 1012.70 1012.32 1011.86 1011.56 1011.78 1012.30 1012.64 1012.81 1012.91 1013.25 1013.66 1013.80 1013.94 1013.95 1013.67 1013.49 1013.30 1013.43 1013.52 1013.76 1013.57 1013.39 1013.23 1012.84 1012.44 1012.14 1011.96 1011.85 1012.00 1012.19 1012.09 1011.89 1011.50 1011.44 1011.53 1011.59 1011.50 1011.53 1011.57 1011.67
1014.97 1014.69 1014.43 1013.89 1013.33 1012.49 1012.06 1011.95 1011.89 1011.89 1011.93 1012.01 1012.08 1012.48 1012.45 1012.33 1011.81 1011.46 1011.53 1011.56 1011.75 1012.07 1012.69 1012.93 1013.06 1012.89 1013.02 1013.37 1013.41 1013.33 1013.05 1012.49 1012.65 1012.81 1012.88 1012.96 1012.90 1012.85 1012.49 1011.98 1011.88 1011.85 1011.86 1011.79 1011.79 1011.63 1011.63 1011.67 1011.72 1011.56 1011.48 1011.38 1011.34 1011.45
1013.98 1013.70 1013.42 1013.10 1012.52 1011.66 1011.56 1011.75 1011.80 1011.81 1011.73 1011.92 1012.12 1012.30 1012.36 1012.44 1012.33 1012.08 1011.56 1011.57 1011.82 1011.95 1012.09 1012.17 1012.18 1012.18 1012.34 1012.40 1012.49 1012.55 1012.37 1012.34 1012.46 1012.46 1012.47 1012.61 1012.70 1012.59 1012.34 1012.24 1012.13 1012.00 1011.96 1011.89 1011.70 1011.46 1011.40 1011.52 1011.64 1011.57 1011.46 1011.24 1011.19 1011.14
1012.97 1012.66 1012.42 1012.33 1011.95 1011.58 1011.35 1011.43 1011.55 1011.82 1011.90 1012.13 1012.38 1012.48 1012.43 1012.30 1012.11 1011.86 1011.42 1011.34 1011.45 1011.58 1011.60 1011.42 1011.40 1011.59 1011.89 1011.98 1012.19 1012.26 1012.30 1012.38 1012.45 1012.45 1012.46 1012.44 1012.43 1012.46 1012.50 1012.46 1012.34 1012.14 1012.08 1012.17 1012.04 1011.90 1011.67 1011.49 1011.43 1011.27 1011.19 1011.08 1010.96 1010.83
Wind_Speed
17 16 16 16 20 20 20 21 20 21 22 23 23 22 22 20 17 6 5 3 2 1 6 4 4 1 4 2 3 6 5 6 5 5 3 3 3 3 1 2 4 8 7 4 4 4 6 3 2 7 7 6 8 6
16 15 16 18 19 20 21 21 22 21 22 22 22 21 19 18 16 7 3 2 1 3 7 4 11 16 9 9 2 3 4 3 4 3 0 1 2 2 3 2 4 2 5 6 4 5 3 4 4 6 8 9 5 10
15 15 15 18 19 20 21 22 23 23 21 22 22 22 19 16 13 6 3 4 2 2 5 4 3 5 4 6 5 3 3 3 1 4 3 1 2 4 2 5 3 1 3 5 4 5 4 7 5 6 8 11 7 7
14 15 17 19 20 21 22 23 23 23 22 22 22 21 19 16 11 5 2 1 1 0 1 7 4 6 8 4 6 4 3 3 2 3 2 2 2 3 3 3 3 3 4 5 3 2 5 5 4 10 9 11 11 8
13 14 17 16 20 21 21 23 24 23 23 22 22 20 18 16 11 4 3 3 1 3 2 6 10 5 6 5 7 5 3 2 1 2 2 3 2 2 2 3 1 3 8 6 8 11 6 7 7 7 11 11 11 12
14 14 15 15 21 20 20 23 24 24 24 23 23 21 17 13 9 1 4 1 2 4 2 4 4 6 7 8 10 7 5 3 2 3 3 3 3 3 3 2 6 4 4 5 6 12 8 9 7 4 9 11 7 9
14 14 14 17 19 19 21 22 24 24 25 25 24 22 15 8 2 3 4 2 2 2 3 5 6 4 4 5 4 5 5 3 2 1 1 2 2 4 3 4 5 3 2 5 11 13 7 3 6 7 11 8 8 7
14 13 16 17 19 20 21 22 25 25 26 27 26 20 9 3 3 2 3 2 5 4 3 1 5 5 7 4 5 4 5 4 5 2 3 3 4 2 2 5 3 2 7 8 8 5 7 7 8 7 9 9 8 7
15 15 15 17 18 19 21 22 24 26 28 27 21 2 3 2 2 2 3 3 2 4 2 1 2 3 4 3 2 5 3 4 4 4 3 3 3 2 5 2 2 2 4 6 5 9 8 9 8 7 9 7 9 7
15 15 16 17 18 19 20 20 22 25 28 18 6 4 2 1 12 3 3 2 3 3 3 1 0 3 3 3 3 3 3 2 4 3 3 4 0 3 4 7 4 3 6 5 12 5 6 6 7 7 7 7 8 8
15 15 16 17 18 19 19 20 19 22 9 6 6 3 4 14 2 3 1 1 0 2 0 2 1 1 2 2 1 1 0 3 4 4 4 4 3 3 9 7 8 9 9 8 3 4 6 9 8 7 6 6 6 7
15 18 17 18 18 18 19 17 13 4 1 3 4 4 4 3 3 1 1 0 2 2 1 2 2 3 1 3 3 3 1 1 2 2 2 3 3 5 6 2 6 7 9 11 6 2 6 6 7 7 7 7 7 6
16 19 18 18 19 18 17 13 12 9 6 1 1 2 3 1 5 2 1 2 1 2 3 1 1 1 2 3 3 2 2 4 1 1 1 3 3 3 4 4 4 2 5 6 5 7 2 6 6 6 6 6 7 7
18 18 18 18 19 16 14 16 12 5 2 1 1 6 2 2 3 1 1 3 4 2 2 1 1 2 1 2 2 1 4 2 1 3 3 2 2 5 5 4 3 4 3 3 8 10 13 6 5 4 6 6 6 6
18 20 20 16 7 13 16 18 12 2 2 2 0 3 4 2 1 1 2 2 0 2 2 2 2 2 1 1 1 1 1 2 1 2 3 4 8 4 1 2 5 6 6 7 4 6 6 2 2 3 1 2 5 5
17 18 3 5 14 18 21 8 2 2 1 2 3 3 3 1 2 1 1 1 1 3 2 3 2 2 2 2 1 1 1 3 4 3 3 4 7 4 4 4 4 4 6 5 4 2 3 2 1 2 2 2 5 6
14 4 8 12 20 23 10 1 1 2 3 3 4 4 4 3 4 1 1 2 2 3 2 3 1 4 1 1 1 2 4 4 4 4 4 4 5 5 6 6 5 5 4 5 3 3 3 2 2 2 4 3 3 4
4 6 15 19 15 7 3 1 1 2 4 4 2 5 3 2 1 2 3 2 3 4 2 3 2 2 0 2 2 4 4 4 3 4 5 6 5 4 4 6 5 6 4 2 2 2 1 1 2 3 2 1 1 3
11 13 21 22 5 4 3 3 2 2 4 3 3 3 2 2 2 2 1 1 1 2 5 2 2 2 3 4 4 3 3 3 3 3 4 5 6 6 5 2 2 1 1 1 2 2 2 3 1 1 2 2 2 3
20 18 15 11 8 1 3 5 0 1 3 3 3 4 3 3 2 2 2 1 3 3 2 1 3 3 4 3 4 4 3 2 2 3 4 4 4 5 5 4 4 4 2 2 2 1 2 2 2 2 3 2 3 2
8 4 5 3 1 1 2 3 4 3 3 2 3 3 3 2 2 2 2 1 4 2 1 1 2 3 3 4 3 2 3 3 4 4 4 4 3 3 4 3 4 1 1 1 2 1 3 3 0 3 3 2 2 2
4 8 3 1 1 2 3 3 3 3 1 3 4 1 2 1 3 3 1 3 2 0 2 2 2 2 3 2 1 2 2 1 2 2 4 2 3 4 3 3 2 1 1 2 3 4 2 1 2 3 2 3 1 2
9 1 2 2 2 2 7 1 1 3 1 3 4 2 1 2 3 2 3 2 1 3 1 2 3 2 1 2 3 3 3 4 3 3 2 1 2 2 2 3 1 2 1 1 2 3 3 2 6 4 4 2 2 1
3 1 2 2 2 4 3 3 2 2 2 2 2 3 2 2 3 3 2 1 2 3 2 3 2 2 4 3 2 2 3 1 1 2 2 3 1 2 1 1 1 2 2 1 1 1 1 3 5 4 4 1 3 5
3 4 3 4 3 2 3 3 2 1 2 1 2 2 3 2 1 2 0 3 2 2 1 2 2 1 1 2 3 2 1 2 3 2 3 2 2 0 3 3 2 3 2 2 2 3 3 4 5 4 3 3 5 6
3 4 5 3 3 3 3 2 2 1 2 2 2 3 2 2 1 1 1 2 2 2 1 2 2 2 2 2 1 1 1 0 1 1 2 2 1 1 2 2 3 4 3 2 2 4 6 3 5 6 2 5 7 7
3 4 4 4 3 3 3 2 2 1 2 2 2 2 2 2 1 0 3 2 2 2 4 4 2 3 1 1 1 1 1 1 0 3 5 4 4 5 4 2 1 4 3 4 4 4 7 7 6 5 6 3 5 6
4 3 4 2 3 3 3 2 2 2 2 2 2 1 2 1 1 4 5 3 3 3 3 1 2 3 3 1 1 3 4 4 6 6 4 2 3 1 5 4 5 8 4 2 2 1 2 3 4 4 3 4 3 4
4 3 1 5 4 3 4 4 3 3 3 3 3 2 3 4 3 4 3 3 4 4 4 3 2 4 1 4 4 2 3 2 5 7 7 5 6 6 5 1 1 0 2 2 5 2 4 4 5 4 3 3 3 3
5 4 3 4 3 4 4 5 4 4 4 4 3 0 2 3 4 2 3 4 4 5 5 6 6 5 6 6 6 5 3 4 4 4 2 3 4 5 5 4 3 3 1 2 3 4 6 3 1 0 0 2 2 1
3 3 3 4 3 4 5 4 2 1 1 3 3 4 4 3 4 2 2 3 4 4 5 5 7 7 4 5 5 4 5 2 5 7 6 4 4 4 4 3 3 2 1 3 4 4 3 1 2 0 2 3 4 4
3 6 3 3 4 4 2 2 1 2 1 1 1 1 2 3 1 3 2 3 3 2 4 5 4 4 5 4 3 4 5 3 3 2 4 3 3 3 3 1 2 2 2 3 4 3 1 3 3 4 4 5 5 7
3 3 4 2 3 3 2 2 1 1 1 2 3 2 1 2 1 3 2 2 3 4 4 4 3 2 6 6 5 3 3 2 2 1 1 1 3 4 1 2 2 3 5 4 4 4 3 2 3 4 5 5 6 7
Wind_Direction
320 321 323 328 333 332 332 331 329 331 332 336 338 342 346 349 350 358 276 256 92 247 274 238 284 317 347 59 123 278 13 350 18 53 101 232 187 242 348 239 182 177 155 181 94 92 260 154 165 168 168 98 132 122
320 322 324 330 331 331 330 326 332 332 330 330 334 336 338 345 347 8 296 317 354 179 245 249 256 251 207 224 130 353 181 217 212 80 262 108 271 3 149 257 7 291 194 165 165 212 290 272 156 113 114 121 134 114
320 322 324 331 331 330 329 328 330 328 324 325 327 331 333 337 341 343 276 295 357 19 302 343 322 327 131 209 185 117 298 229 343 171 164 215 271 118 173 244 140 151 150 89 71 326 10 91 73 87 122 122 126 115
319 324 332 333 331 329 326 326 326 324 322 321 322 325 327 328 332 328 254 248 122 138 33 286 341 330 293 187 171 189 196 36 97 83 132 161 212 162 216 222 160 196 73 121 58 349 61 349 129 137 122 118 110 106
320 326 331 321 330 328 323 325 322 322 319 318 317 319 322 322 321 284 211 234 200 118 245 287 308 299 344 15 53 58 75 104 75 38 72 242 255 90 1 63 289 188 169 153 200 194 158 178 189 144 126 131 134 127
317 314 318 325 331 320 320 320 322 320 317 316 314 316 315 313 324 359 17 275 218 162 69 335 299 316 341 15 35 13 12 50 99 149 221 262 261 99 100 219 256 230 245 203 196 154 159 157 163 123 126 142 137 125
315 316 322 323 325 321 319 320 321 318 316 314 314 312 306 291 149 152 187 224 153 77 74 324 336 315 339 30 12 356 360 358 72 311 284 284 335 88 117 191 253 311 128 112 129 122 90 137 149 131 126 127 121 124
314 314 318 318 319 319 320 321 322 319 316 316 316 309 296 175 254 359 332 350 135 103 81 24 285 11 8 9 346 1 352 356 15 322 351 27 332 43 230 246 175 86 102 104 112 87 117 115 103 100 116 120 126 140
310 309 313 316 317 318 320 322 325 321 317 319 315 15 102 44 43 256 8 124 59 123 127 81 78 289 359 359 334 346 23 359 307 25 349 12 343 32 287 325 78 149 127 149 96 106 105 111 118 121 130 139 135 157
308 309 310 313 314 316 320 323 328 323 319 320 23 26 9 316 315 331 32 23 30 354 47 103 240 315 54 13 360 5 11 24 6 287 297 44 62 302 325 34 1 22 110 133 117 96 105 114 137 149 172 170 160 168
307 309 310 311 312 314 319 325 329 327 357 15 12 325 297 306 36 37 347 79 322 30 349 226 145 283 337 63 264 38 131 344 12 328 20 332 5 348 324 57 353 15 36 17 122 145 166 158 164 153 157 166 166 162
309 315 311 310 312 315 318 316 328 10 231 274 290 295 299 345 35 52 279 141 64 214 274 131 228 174 291 101 83 347 93 40 298 341 321 317 289 315 1 89 55 353 343 40 354 236 179 183 177 162 163 173 166 182
312 311 307 309 311 315 308 305 319 295 304 117 252 294 51 282 43 215 162 335 360 222 222 182 328 147 19 56 71 71 73 232 30 359 259 233 263 287 282 282 169 164 8 6 7 351 247 195 170 177 171 188 164 169
314 306 306 305 309 304 302 308 314 337 44 332 334 329 171 268 243 207 182 176 234 172 143 122 337 116 186 73 143 102 236 116 265 209 237 295 238 240 216 230 138 9 351 320 3 357 329 269 205 177 190 172 160 187
310 308 309 304 295 309 311 309 308 145 114 270 285 254 234 265 252 169 162 99 203 124 109 53 31 79 341 109 198 19 257 265 287 275 268 296 305 268 199 73 138 123 276 305 221 223 263 348 140 155 131 224 204 196
317 314 277 302 333 327 321 317 135 122 175 237 243 290 284 64 314 61 170 222 195 137 92 65 75 40 281 152 96 280 316 6 266 228 256 310 317 287 270 249 266 270 275 280 292 299 312 295 263 270 310 241 237 227
316 240 300 330 335 321 310 248 125 210 238 259 264 237 241 227 212 238 154 260 124 86 207 111 271 222 135 107 225 205 196 218 253 292 277 246 248 247 239 252 266 273 253 240 225 255 264 277 317 322 291 302 267 187
250 284 314 315 334 312 299 215 214 250 261 262 297 296 305 238 134 292 237 191 170 125 124 204 150 45 249 187 248 244 246 266 275 263 288 310 304 296 250 251 235 240 244 279 250 241 254 233 234 260 262 262 180 147
284 292 294 298 304 315 334 300 153 253 251 262 280 292 292 271 228 300 262 338 124 133 114 79 128 194 231 218 227 260 259 228 256 307 309 307 323 333 338 292 263 290 302 251 248 244 236 212 181 237 253 174 127 143
290 285 279 293 162 172 304 283 46 238 275 268 294 322 282 229 276 302 271 337 62 76 39 113 210 216 202 232 209 211 212 219 236 279 285 291 295 316 302 288 287 291 299 355 25 18 124 74 57 25 47 84 107 74
318 293 12 100 133 178 240 295 305 226 288 310 278 330 281 343 347 329 295 127 70 136 173 241 270 267 249 233 241 229 247 190 225 211 245 284 290 277 293 293 246 232 294 136 159 160 159 127 46 343 359 50 121 208
270 325 330 259 277 196 264 236 211 280 310 261 316 289 281 306 292 268 189 71 77 187 180 192 235 257 328 352 351 213 283 266 293 314 333 300 323 333 331 329 357 94 121 150 178 188 155 164 311 329 329 303 147 190
304 261 295 272 310 37 261 26 255 231 234 273 335 298 315 310 246 1 69 50 235 249 244 253 248 223 138 40 41 13 19 25 18 348 316 282 261 324 340 353 38 129 114 267 218 156 158 348 359 325 305 44 149 128
293 281 285 284 165 260 299 269 229 270 285 292 291 303 274 247 343 47 83 298 270 315 305 318 33 4 9 19 359 309 346 55 124 35 16 352 6 349 319 338 331 204 197 161 156 179 57 7 331 327 327 118 117 135
40 288 107 293 264 265 262 269 246 284 275 266 272 287 293 8 300 72 99 284 306 278 298 350 1 51 269 287 288 352 311 189 143 110 305 321 290 268 3 351 320 244 233 114 148 168 247 255 299 5 79 97 150 157
264 237 166 236 242 198 250 290 4 323 291 276 270 285 1 33 321 171 239 242 240 230 225 202 258 299 309 239 288 18 328 227 127 326 271 222 12 34 332 355 344 314 302 253 250 283 301 302 280 292 156 183 160 143
266 267 233 229 256 283 277 277 264 210 254 260 266 303 330 274 57 333 275 248 237 233 188 189 131 66 35 328 324 324 302 269 33 254 266 261 222 205 196 211 304 259 326 319 288 267 261 256 225 208 173 186 190 187
249 265 220 286 263 225 231 250 230 238 248 241 65 9 337 351 239 220 209 214 198 122 148 99 50 80 59 30 358 351 341 343 317 309 300 321 36 122 190 218 249 277 291 330 276 154 97 80 97 117 136 169 201 211
250 257 318 266 249 251 220 207 225 237 210 148 147 204 189 233 215 194 227 203 154 140 141 139 94 100 2 287 281 271 280 339 0 358 19 356 348 330 5 315 196 103 332 321 349 31 110 121 135 141 180 202 257 232
249 181 219 251 226 231 240 180 214 221 202 193 176 33 330 271 249 213 147 147 160 185 189 160 163 192 183 218 260 280 236 199 200 215 291 318 287 297 312 284 221 215 200 306 326 326 348 23 34 248 184 222 192 239
256 181 229 237 252 250 225 232 274 249 220 218 192 189 233 276 311 323 199 189 201 160 139 156 193 221 192 203 215 249 278 256 196 214 226 246 283 303 299 41 59 89 163 256 269 258 213 292 331 12 24 353 284 234
209 212 208 228 261 279 121 172 196 205 217 70 325 79 4 45 322 294 273 112 94 132 193 171 172 210 186 215 214 242 240 220 186 194 143 176 229 280 317 16 72 87 69 28 18 39 72 171 228 255 273 293 276 271
220 228 224 242 303 307 288 155 169 28 45 32 29 3 286 188 266 255 301 202 174 186 214 223 220 136 139 172 188 199 190 140 111 110 119 254 275 285 300 357 3 42 50 25 360 343 6 7 286 299 320 299 286 283